DW6536 Weather Reports


time (UTC)temp
C
wind
direction
speed
KPH
gust
KPH
rain 1hr
cm
rain 24hr
cm
rain mn
cm
humidity
%
barometer
mb
20260509054535 22 145 3.2 0.0 0.00 0.00 0.00 88 1008.5
20260509053025 22 131 3.2 0.0 0.00 0.00 0.00 88 1007.7
20260509051523 22 126 1.6 0.0 0.00 0.00 0.00 88 1007.5
20260509050026 22 135 1.6 0.0 0.00 0.00 0.00 87 1007.4
20260509044521 22 140 0.0 0.0 0.00 0.00 0.00 87 1007.6
20260509043021 22 134 1.6 0.0 0.00 0.00 0.00 87 1007.9
20260509041522 22 131 0.0 0.0 0.00 0.00 0.00 87 1008.1
20260509040033 22 124 1.6 0.0 0.00 0.00 0.00 87 1008.2
20260509034519 22 119 0.0 0.0 0.00 0.00 0.00 87 1008.1
20260509033017 21 145 0.0 0.0 0.00 0.00 0.00 86 1007.8
20260509031525 22 179 0.0 0.0 0.00 0.00 0.00 85 1007.8
20260509030016 22 161 0.0 0.0 0.00 0.00 0.00 84 1007.7
20260509024516 22 165 0.0 0.0 0.00 0.00 0.00 83 1007.7
20260509023015 23 131 1.6 0.0 0.00 0.00 0.00 83 1007.6
20260509021517 23 136 1.6 0.0 0.00 0.00 0.00 82 1007.3
20260509020014 23 143 1.6 0.0 0.00 0.00 0.00 82 1007.0
20260509014531 23 116 1.6 0.0 0.00 0.00 0.00 81 1006.9
20260509013013 24 126 1.6 0.0 0.00 0.00 0.00 80 1006.7
20260509011511 24 189 3.2 0.0 0.00 0.00 0.00 78 1006.7
20260509010011 25 136 1.6 0.0 0.00 0.00 0.00 77 1006.8
20260509004510 25 143 1.6 0.0 0.00 0.00 0.00 77 1006.7
20260509003010 25 139 3.2 0.0 0.00 0.00 0.00 77 1006.8
20260509001509 25 138 1.6 0.0 0.00 0.00 0.00 76 1006.8
20260509000009 25 150 0.0 0.0 0.00 0.00 0.00 76 1006.7
20260508234509 25 150 1.6 0.0 0.00 0.00 0.00 76 1007.0
20260508233008 25 123 3.2 0.0 0.00 0.00 0.00 75 1006.8
20260508231508 25 137 1.6 0.0 0.00 0.00 0.00 74 1006.8
20260508230007 25 155 1.6 0.0 0.00 0.00 0.00 74 1006.8
20260508224506 25 150 1.6 0.0 0.00 0.00 0.00 74 1006.9
20260508223008 26 145 1.6 0.0 0.00 0.00 0.00 73 1006.9
20260508221505 26 110 1.6 0.0 0.00 0.00 0.00 73 1006.9
20260508220013 26 164 3.2 0.0 0.00 0.00 0.00 72 1006.9
20260508214502 27 199 3.2 0.0 0.00 0.00 0.00 70 1007.1
20260508213101 26 128 1.6 0.0 0.00 0.00 0.00 73 1007.2
20260508211556 26 68 1.6 0.0 0.00 0.00 0.00 72 1007.6
20260508210057 26 93 1.6 0.0 0.00 0.00 0.00 73 1007.7
20260508204602 26 147 1.6 0.0 0.00 0.00 0.00 72 1008.2
20260508203052 26 165 1.6 0.0 0.00 0.00 0.00 72 1008.2
20260508201550 26 58 1.6 0.0 0.00 0.00 0.00 72 1008.3
20260508200051 25 154 3.2 0.0 0.00 0.00 0.00 71 1008.6
20260508194547 25 137 1.6 0.0 0.00 0.00 0.00 71 1009.0
20260508193051 25 148 1.6 0.0 0.00 0.00 0.00 71 1009.0
20260508191544 25 135 1.6 0.0 0.00 0.00 0.00 69 1009.2
20260508190053 26 56 1.6 0.0 0.00 0.00 0.00 69 1009.2
20260508184548 26 203 3.2 0.0 0.00 0.00 0.00 67 1009.4
20260508183043 25 133 1.6 0.0 0.00 0.00 0.00 71 1009.7
20260508181543 24 99 1.6 0.0 0.00 0.00 0.00 73 1010.0
20260508180030 23 14 1.6 0.0 0.00 0.00 0.00 72 1010.2
20260508174535 23 148 1.6 0.0 0.00 0.00 0.00 72 1010.4
20260508173024 22 68 1.6 0.0 0.00 0.00 0.00 74 1010.5
20260508171520 21 11 1.6 0.0 0.00 0.00 0.00 77 1010.6
20260508170016 20 93 1.6 0.0 0.00 0.00 0.00 77 1010.9
20260508164512 20 53 0.0 0.0 0.00 0.00 0.00 76 1011.3
20260508163017 20 61 0.0 0.0 0.00 0.00 0.00 76 1011.4
20260508161508 20 321 0.0 0.0 0.00 0.00 0.00 77 1011.5
20260508160004 19 31 0.0 0.0 0.00 0.00 0.00 77 1011.8
20260508154502 18 122 0.0 0.0 0.00 0.00 0.00 78 1012.0
20260508153002 18 151 1.6 0.0 0.00 0.00 0.00 77 1012.1
20260508151500 18 156 1.6 0.0 0.00 0.00 0.00 78 1012.1
20260508150100 18 135 1.6 0.0 0.00 0.00 0.00 77 1012.2
20260508144607 18 218 0.0 0.0 0.00 0.00 0.00 77 1012.0
20260508143100 18 63 1.6 0.0 0.00 0.00 0.00 78 1012.1
20260508141600 17 52 0.0 0.0 0.00 0.00 0.00 80 1011.9
20260508140053 17 153 1.6 0.0 0.00 0.00 0.00 80 1012.1
20260508134559 16 118 0.0 0.0 0.00 0.00 0.00 82 1012.1
20260508133048 16 108 0.0 0.0 0.00 0.00 0.00 82 1012.2
20260508131546 16 131 0.0 0.0 0.00 0.00 0.00 82 1012.7
20260508130044 16 108 0.0 0.0 0.00 0.00 0.00 82 1012.4
20260508124543 16 70 0.0 0.0 0.00 0.00 0.00 82 1012.4
20260508123051 15 70 0.0 0.0 0.00 0.00 0.00 83 1012.6
20260508121544 15 70 0.0 0.0 0.00 0.00 0.00 83 1012.8
20260508120044 15 70 0.0 0.0 0.00 0.00 0.00 84 1012.8
20260508114548 15 35 0.0 0.0 0.00 0.00 0.00 83 1013.1
20260508113045 15 16 0.0 0.0 0.00 0.00 0.00 83 1013.2
20260508111544 15 353 0.0 0.0 0.00 0.00 0.00 84 1013.3
20260508110039 15 35 0.0 0.0 0.00 0.00 0.00 84 1012.7
20260508104541 15 29 0.0 0.0 0.00 0.00 0.00 84 1012.6
20260508103040 15 18 0.0 0.0 0.00 0.00 0.00 83 1012.6
20260508101537 15 16 0.0 0.0 0.00 0.00 0.00 83 1013.1
20260508100036 16 278 0.0 0.0 0.00 0.00 0.00 82 1013.3
20260508094551 16 354 0.0 0.0 0.00 0.00 0.00 80 1013.3
20260508093037 16 357 0.0 0.0 0.00 0.00 0.00 80 1013.3
20260508091540 16 35 0.0 0.0 0.00 0.00 0.00 81 1013.1
20260508090034 15 35 0.0 0.0 0.00 0.00 0.00 80 1012.9
20260508084534 15 35 0.0 0.0 0.00 0.00 0.00 80 1012.7
20260508083034 15 35 0.0 0.0 0.00 0.00 0.00 80 1012.9
20260508081556 15 35 0.0 0.0 0.00 0.00 0.00 81 1012.9
20260508080037 15 35 0.0 0.0 0.00 0.00 0.00 81 1012.9
20260508074530 15 35 0.0 0.0 0.00 0.00 0.00 82 1012.7
20260508073028 15 358 0.0 0.0 0.00 0.00 0.00 82 1012.7
20260508071537 15 358 0.0 0.0 0.00 0.00 0.00 83 1012.7
20260508070022 15 326 0.0 0.0 0.00 0.00 0.00 83 1013.2
20260508064521 15 326 0.0 0.0 0.00 0.00 0.00 84 1013.2
20260508063031 15 326 0.0 0.0 0.00 0.00 0.00 85 1013.7
20260508061519 15 326 0.0 0.0 0.00 0.00 0.00 84 1014.1
20260508060017 15 326 0.0 0.0 0.00 0.00 0.00 83 1013.6